User: anonymous
Location: Roanoke
(37.2710°N, 79.9420°W)
Time: 17:00:11
(UTC-04:00)
Language:

Cosmos 1441 Rocket - Orbit

View from above orbital plane
View from above orbital plane
View from above satellite
View from above satellite

Ground track
Ground track

The orbit data is extracted from the following two-line orbital elements,

1 13819U 83010B   14243.66373011  .00001648  00000-0  95905-4 0  9299
2 13819 081.1189 268.4435 0035816 133.9983 226.4205 15.10952882719349
Epoch (UTC): 31 August 2014 15:55:46
Eccentricity: 0.0035816
inclination: 81.1189°
perigee height: 508 km
apogee height: 558 km
right ascension of ascending node: 268.4435°
argument of perigee: 133.9983°
revolutions per day: 15.10952882
mean anomaly at epoch: 226.4205°
orbit number at epoch: 71934

The dashed part of the orbit path shows where the satellite is in the earth's shadow,  

DLR